Location: Aalen
(48.8330°N, 10.1000°E)
Time: 01:20:33
(UTC+02:00)

Transit 4A - Pass Details

Date: 09 August 2021
Orbit: 870 x 974 km, 66.8° (Epoch: 26 September)

Event Time Altitude Azimuth Distance (km) Brightness Sun altitude
Rises 23:58:09 0° 217° (SW) 3,479 - -22.5°
Reaches altitude 10° 00:00:38 10° 219° (SW) 2,533 - -22.6°
Exits shadow 00:02:36 22° 221° (SW) 1,818 9.2 -22.7°
Maximum altitude 00:06:30 79° 306° (NW) 894 7.8 -23.0°
Drops below altitude 10° 00:12:20 10° 34° (NE) 2,527 10.6 -23.3°
Sets 00:14:50 0° 36° (NE) 3,471 11.4 -23.4°
